EW0150 Weather Reports


time (UTC)temp
F
wind
direction
speed
knots
gust
knots
rain 1hr
in
rain 24hr
in
rain mn
in
humidity
%
barometer
mb
20260902171004 68 350 0.9 2.6 0.00 0.00 0.00 68 1018.9
20260902170007 69 350 1.7 2.6 0.00 0.00 0.00 66 1018.9
20260902165003 70 11 2.6 4.3 0.00 0.00 0.00 66 1018.8
20260902163005 71 346 3.5 5.2 0.00 0.00 0.00 62 1018.8
20260902162006 71 316 3.5 5.2 0.00 0.00 0.00 62 1018.8
20260902161004 71 329 3.5 7.0 0.00 0.00 0.00 62 1018.8
20260902160010 72 306 1.7 3.5 0.00 0.00 0.00 60 1018.9
20260902155003 73 306 1.7 3.5 0.00 0.00 0.00 58 1019.0
20260902154005 73 306 2.6 7.0 0.00 0.00 0.00 56 1019.0
20260902153006 73 309 2.6 5.2 0.00 0.00 0.00 55 1019.0
20260902152008 74 327 1.7 3.5 0.00 0.00 0.00 54 1019.0
20260902150009 75 360 1.7 3.5 0.00 0.00 0.00 56 1019.1
20260902145006 74 311 2.6 4.3 0.00 0.00 0.00 53 1019.1
20260902144009 74 311 2.6 4.3 0.00 0.00 0.00 54 1019.2
20260902143005 75 295 4.3 8.7 0.00 0.00 0.00 55 1019.2
20260902142005 75 323 3.5 7.8 0.00 0.00 0.00 54 1019.3
20260902141005 74 163 2.6 5.2 0.00 0.00 0.00 55 1019.3
20260902140007 76 335 1.7 3.5 0.00 0.00 0.00 53 1019.3
20260902135008 75 220 2.6 5.2 0.00 0.00 0.00 53 1019.5
20260902134004 75 273 4.3 9.6 0.00 0.00 0.00 51 1019.6
20260902133007 75 226 3.5 7.8 0.00 0.00 0.00 52 1019.6
20260902132005 75 229 1.7 5.2 0.00 0.00 0.00 52 1019.7
20260902130010 75 300 2.6 7.8 0.00 0.00 0.00 55 1019.7
20260902125005 75 238 4.3 8.7 0.00 0.00 0.00 51 1019.8
20260902123005 74 286 3.5 7.8 0.00 0.00 0.00 54 1020.0
20260902122005 74 194 6.1 9.6 0.00 0.00 0.00 50 1020.1
20260902121005 75 311 4.3 9.6 0.00 0.00 0.00 50 1020.1
20260902120006 76 252 5.2 8.7 0.00 0.00 0.00 52 1020.1
20260902115007 75 172 3.5 9.6 0.00 0.00 0.00 54 1020.2
20260902114004 74 205 4.3 7.8 0.00 0.00 0.00 58 1020.4
20260902113005 73 238 5.2 8.7 0.00 0.00 0.00 56 1020.4
20260902112005 72 285 6.1 10.4 0.00 0.00 0.00 59 1020.5
20260902111004 73 355 5.2 9.6 0.00 0.00 0.00 57 1020.5
20260902110008 74 298 4.3 9.6 0.00 0.00 0.00 57 1020.5
20260902105006 73 292 4.3 9.6 0.00 0.00 0.00 55 1020.6
20260902104004 73 262 4.3 9.6 0.00 0.00 0.00 55 1020.6
20260902103005 73 207 2.6 7.0 0.00 0.00 0.00 57 1020.5
20260902102005 74 300 6.1 10.4 0.00 0.00 0.00 56 1020.6
20260902101005 73 196 4.3 7.8 0.00 0.00 0.00 56 1020.8
20260902100007 73 254 5.2 9.6 0.00 0.00 0.00 56 1020.9
20260902094004 72 242 2.6 7.0 0.00 0.00 0.00 58 1020.9
20260902093004 71 234 3.5 7.8 0.00 0.00 0.00 58 1020.9
20260902092004 71 144 3.5 7.0 0.00 0.00 0.00 58 1021.0
20260902091004 70 121 3.5 7.8 0.00 0.00 0.00 59 1021.0
20260902090009 70 207 3.5 7.0 0.00 0.00 0.00 59 1021.1
20260902085004 70 215 5.2 7.8 0.00 0.00 0.00 60 1021.1
20260902084007 69 180 4.3 7.0 0.00 0.00 0.00 64 1021.1
20260902083004 69 173 3.5 7.0 0.00 0.00 0.00 66 1021.1
20260902082006 67 226 5.2 7.8 0.00 0.00 0.00 69 1021.2
20260902080006 66 261 3.5 7.0 0.00 0.00 0.00 70 1021.2
20260902075006 65 271 1.7 5.2 0.00 0.00 0.00 72 1021.2
20260902073006 64 229 2.6 4.3 0.00 0.00 0.00 73 1021.0
20260902072005 64 196 1.7 4.3 0.00 0.00 0.00 74 1021.0
20260902070008 61 165 1.7 2.6 0.00 0.00 0.00 76 1021.0
20260902065006 61 165 1.7 4.3 0.00 0.00 0.00 76 1020.9
20260902064004 60 165 3.5 5.2 0.00 0.00 0.00 79 1020.9
20260902063005 60 179 3.5 5.2 0.00 0.00 0.00 79 1020.9
20260902062006 59 163 1.7 3.5 0.00 0.00 0.00 81 1020.9
20260902060008 58 163 1.7 3.5 0.00 0.00 0.00 83 1020.8
20260902055006 57 194 1.7 3.5 0.00 0.00 0.00 84 1020.8
20260902054007 57 194 1.7 3.5 0.00 0.00 0.00 84 1020.8
20260902053006 56 194 1.7 3.5 0.00 0.00 0.00 86 1020.8
20260902051006 53 194 0.0 0.9 0.00 0.00 0.00 90 1020.7
20260902050009 51 194 0.0 0.9 0.00 0.00 0.00 92 1020.6
20260902045007 50 194 1.7 2.6 0.00 0.00 0.00 92 1020.6
20260902043005 49 194 0.0 0.9 0.00 0.00 0.00 92 1020.5
20260902042008 50 194 1.7 3.5 0.00 0.00 0.00 90 1020.5
20260902035005 49 194 0.9 1.7 0.00 0.00 0.00 91 1020.6
20260902034005 49 194 2.6 3.5 0.00 0.00 0.00 91 1020.5
20260902033006 51 194 1.7 2.6 0.00 0.00 0.00 91 1020.5
20260902031007 50 194 0.9 1.7 0.00 0.00 0.00 91 1020.4
20260902030008 50 194 0.0 1.7 0.00 0.00 0.00 91 1020.5
20260902025007 50 194 0.0 1.7 0.00 0.00 0.00 92 1020.5
20260902024005 50 194 0.9 2.6 0.00 0.00 0.00 91 1020.3
20260902023007 50 194 1.7 2.6 0.00 0.00 0.00 91 1020.5
20260902020007 50 194 0.9 1.7 0.00 0.00 0.00 91 1020.6
20260902015008 50 194 0.0 0.9 0.00 0.00 0.00 91 1020.5
20260902014005 50 194 0.0 0.9 0.00 0.00 0.00 91 1020.6
20260902012005 51 194 0.9 1.7 0.00 0.00 0.00 92 1020.7
20260902011005 50 194 0.0 1.7 0.00 0.00 0.00 91 1020.6
20260902010007 50 194 0.9 0.9 0.00 0.00 0.00 91 1020.5
20260902005007 51 194 0.0 0.9 0.00 0.00 0.00 91 1020.5
20260902004005 52 194 0.9 1.7 0.00 0.00 0.00 91 1020.5
20260902003004 52 194 1.7 2.6 0.00 0.00 0.00 90 1020.5
20260902002007 52 194 0.0 1.7 0.00 0.00 0.00 91 1020.5
20260902001005 51 194 0.9 0.9 0.00 0.00 0.00 91 1020.5
20260902000009 52 194 0.9 1.7 0.00 0.00 0.00 91 1020.4
20260901235005 52 194 0.0 0.0 0.00 0.00 0.00 91 1020.4
20260901234004 52 194 0.0 0.9 0.00 0.00 0.00 90 1020.5
20260901233006 52 194 0.0 1.7 0.00 0.00 0.00 91 1020.5
20260901232005 52 194 0.9 1.7 0.00 0.00 0.00 91 1020.4
20260901231004 52 194 0.0 0.9 0.00 0.00 0.00 91 1020.5
20260901230009 53 194 0.9 0.9 0.00 0.00 0.00 90 1020.6
20260901225005 53 194 0.0 1.7 0.00 0.00 0.00 90 1020.5
20260901224004 53 194 0.0 0.0 0.00 0.00 0.00 91 1020.5
20260901223006 53 194 0.0 0.9 0.00 0.00 0.00 90 1020.5
20260901222006 53 194 0.0 0.9 0.00 0.00 0.00 90 1020.5
20260901221005 53 194 0.9 1.7 0.00 0.00 0.00 89 1020.4
20260901220011 53 194 0.0 0.0 0.00 0.00 0.00 90 1020.4
20260901214006 54 194 0.0 1.7 0.00 0.00 0.00 90 1020.4
20260901213005 55 194 0.0 0.9 0.00 0.00 0.00 89 1020.4
20260901212005 55 194 0.9 1.7 0.00 0.00 0.00 89 1020.4
20260901211004 55 194 0.9 0.9 0.00 0.00 0.00 88 1020.5
20260901210007 56 194 0.9 1.7 0.00 0.00 0.00 87 1020.4
20260901205005 56 194 0.9 1.7 0.00 0.00 0.00 88 1020.4
20260901204006 56 194 0.0 0.9 0.00 0.00 0.00 89 1020.4
20260901203006 56 194 0.0 0.9 0.00 0.00 0.00 89 1020.4
20260901202005 56 194 0.9 0.9 0.00 0.00 0.00 89 1020.3
20260901201003 57 194 0.9 1.7 0.00 0.00 0.00 87 1020.3
20260901200012 56 194 0.0 0.9 0.00 0.00 0.00 88 1020.3
20260901195004 57 194 0.0 0.9 0.00 0.00 0.00 87 1020.2
20260901194005 58 194 1.7 2.6 0.00 0.00 0.00 85 1020.2
20260901193004 58 194 1.7 2.6 0.00 0.00 0.00 86 1020.3
20260901191003 59 194 0.9 1.7 0.00 0.00 0.00 85 1020.2
20260901184003 59 194 0.9 2.6 0.00 0.00 0.00 85 1020.2
20260901182005 61 144 0.9 2.6 0.00 0.00 0.00 81 1020.1
20260901181003 61 144 0.9 1.7 0.00 0.00 0.00 81 1020.0
20260901180008 62 144 1.7 2.6 0.00 0.00 0.00 79 1019.9
20260901175005 63 144 1.7 2.6 0.00 0.00 0.00 77 1019.7
20260901174008 64 281 1.7 1.7 0.00 0.00 0.00 75 1019.7
20260901173003 66 281 0.9 1.7 0.00 0.00 0.00 73 1019.6
20260901172005 66 281 0.0 1.7 0.00 0.00 0.00 69 1019.6